Terminal Aerodrome Forecast
Issued by NWS

Home | Current Version | Previous Version | Text Only | Print | Product List | Glossary On
Versions: 1 2 3 4 5 6 7 8 9 10 11 12 13 14 15 16 17 18
000
FTUS45 KMSO 212300
TAFSMN
TAF
KSMN 212320Z 2200/2224 VRB05KT P6SM VCTS BKN100CB
     FM220300 VRB05KT P6SM VCSH BKN100
     FM221500 VRB05KT P6SM -TSRA SCT050 BKN070CB
      AMD LTD TO CLD VIS AND WIND=

USA.gov is the U.S. government's official web portal to all federal, state and local government web resources and services.